Temp
79 78 78 77 78 78 79 80 79 79 80 80 80 81 80 79 77 74 75 75 81 81 80 80 80 80 80 80 80 80 80 79 79
78 77 77 77 77 77 78 78 79 79 79 79 79 80 79 77 76 76 75 74 80 80 80 80 80 79 79 79 79 79 79 79 78
77 77 76 76 76 76 76 76 77 79 79 78 78 79 79 77 75 74 74 77 80 80 79 79 79 79 79 79 79 79 79 79 79
77 76 76 75 75 75 75 75 75 76 78 76 77 78 77 73 74 76 73 77 79 79 78 79 79 79 79 79 79 79 78 79 78
76 75 75 75 74 74 74 75 75 75 75 75 76 77 76 70 69 68 72 78 79 78 78 78 78 78 79 79 79 79 79 78 78
68 72 74 74 74 74 74 74 74 75 75 76 77 76 69 68 66 67 74 76 77 76 76 76 77 77 77 78 78 79 78 78 78
67 70 73 74 74 74 74 75 75 73 64 64 70 66 66 65 64 66 73 75 75 75 75 75 76 76 76 77 77 77 78 78 78
61 59 63 60 70 63 66 64 63 64 62 63 64 64 62 60 62 68 72 73 74 74 73 74 74 75 75 75 75 76 76 78 78
58 57 57 57 58 58 59 59 61 62 63 60 60 61 59 57 59 64 70 71 72 72 72 73 73 73 74 74 73 74 74 75 75
59 57 57 57 58 59 58 59 60 60 61 61 61 59 57 56 57 57 70 70 70 71 71 72 72 72 72 72 72 72 72 73 73
59 58 59 58 59 59 59 59 58 59 59 61 62 59 58 57 56 57 59 69 69 69 69 70 70 71 71 70 70 70 71 71 72
60 59 58 58 59 60 59 58 58 57 59 57 59 60 59 59 56 57 56 61 68 68 68 68 68 69 69 69 69 69 69 70 70
60 59 58 59 58 58 57 56 55 55 55 54 55 57 58 59 57 57 56 55 59 64 67 67 66 67 68 68 68 68 68 68 69
60 59 58 58 57 56 57 55 55 54 54 56 55 54 55 57 61 57 57 55 55 55 64 68 67 67 68 68 68 67 67 68 67
60 58 58 57 55 55 54 55 54 54 54 62 59 53 54 54 54 55 59 55 56 55 56 55 57 68 68 69 69 68 67 68 67
60 57 57 56 57 55 55 53 54 52 52 52 51 51 52 53 54 54 54 55 56 54 55 53 54 56 69 69 70 70 69 68 66
61 59 57 56 54 54 54 53 50 51 51 49 46 47 50 50 54 52 56 54 54 55 57 54 54 54 54 57 67 68 68 67 67
65 60 59 57 56 56 52 52 52 49 49 51 49 44 45 45 49 51 52 53 53 53 54 56 57 55 53 59 61 66 66 67 67
65 63 60 59 57 54 56 55 51 50 49 49 54 48 48 45 45 48 49 51 54 52 51 53 55 55 53 59 61 65 67 67 67
65 63 61 60 57 59 54 53 52 50 49 48 47 46 46 45 43 42 46 49 49 51 51 51 51 53 53 53 57 65 66 66 66
MSLP
1017.36 1017.47 1017.58 1017.73 1017.78 1017.68 1017.59 1017.46 1017.44 1017.39 1017.39 1017.36 1017.42 1017.39 1017.36 1017.35 1017.62 1017.78 1017.83 1017.89 1017.78 1017.82 1017.83 1017.82 1017.83 1017.83 1017.84 1017.92 1017.98 1018.03 1018.09 1018.27 1018.33
1017.50 1017.60 1017.66 1017.79 1017.89 1017.91 1017.87 1017.81 1017.54 1017.40 1017.59 1017.64 1017.60 1017.56 1017.60 1017.50 1017.80 1017.89 1018.03 1018.12 1017.95 1017.93 1017.96 1017.98 1017.99 1017.99 1018.02 1018.06 1018.14 1018.17 1018.19 1018.37 1018.48
1017.53 1017.63 1017.75 1017.83 1017.89 1018.04 1018.04 1018.02 1017.81 1017.53 1017.70 1017.85 1017.76 1017.66 1017.73 1017.73 1018.05 1018.05 1018.21 1018.25 1018.00 1018.04 1018.04 1018.05 1018.05 1018.05 1018.09 1018.11 1018.22 1018.28 1018.35 1018.48 1018.58
1017.55 1017.63 1017.79 1017.89 1017.93 1018.03 1018.05 1018.10 1018.15 1018.02 1017.88 1017.99 1017.94 1017.81 1017.80 1018.00 1018.12 1018.23 1018.53 1018.45 1018.16 1018.12 1018.13 1018.11 1018.09 1018.09 1018.10 1018.14 1018.24 1018.31 1018.44 1018.54 1018.67
1017.53 1017.60 1017.76 1017.89 1017.97 1017.98 1018.07 1018.08 1018.16 1018.19 1018.08 1018.06 1017.98 1017.92 1018.06 1018.25 1018.61 1018.69 1018.63 1018.47 1018.39 1018.43 1018.29 1018.27 1018.18 1018.11 1018.07 1018.09 1018.19 1018.30 1018.42 1018.60 1018.72
1017.61 1017.65 1017.75 1017.87 1017.95 1017.96 1018.06 1018.06 1018.16 1018.18 1018.14 1018.07 1018.09 1018.03 1018.41 1018.65 1019.03 1018.99 1018.74 1018.75 1018.72 1018.75 1018.62 1018.54 1018.45 1018.32 1018.23 1018.12 1018.07 1018.20 1018.38 1018.53 1018.65
1017.65 1017.67 1017.72 1017.83 1017.93 1017.95 1017.99 1018.08 1018.08 1018.14 1018.32 1018.37 1018.23 1018.48 1018.73 1018.98 1019.21 1019.15 1019.11 1019.07 1018.96 1019.04 1018.95 1018.82 1018.77 1018.67 1018.61 1018.37 1018.24 1018.20 1018.29 1018.41 1018.51
1017.69 1017.89 1017.83 1018.03 1017.94 1018.13 1018.20 1018.20 1018.24 1018.32 1018.44 1018.37 1018.34 1018.62 1018.98 1019.28 1019.31 1019.25 1019.26 1019.32 1019.30 1019.34 1019.28 1019.18 1019.06 1018.93 1018.83 1018.68 1018.53 1018.39 1018.25 1018.37 1018.40
1017.74 1018.00 1018.06 1018.13 1018.09 1018.22 1018.37 1018.36 1018.21 1018.25 1018.37 1018.58 1018.63 1018.70 1019.11 1019.42 1019.53 1019.37 1019.43 1019.50 1019.52 1019.51 1019.44 1019.37 1019.29 1019.19 1019.05 1018.93 1019.00 1018.83 1018.69 1018.60 1018.50
1017.45 1017.72 1017.90 1017.94 1017.94 1018.01 1018.25 1018.27 1018.32 1018.41 1018.45 1018.63 1018.81 1018.96 1019.22 1019.49 1019.63 1019.64 1019.45 1019.63 1019.69 1019.72 1019.67 1019.54 1019.46 1019.41 1019.34 1019.32 1019.32 1019.19 1019.07 1018.91 1018.79
1017.15 1017.46 1017.60 1017.59 1017.57 1017.70 1017.87 1018.19 1018.31 1018.41 1018.43 1018.50 1018.68 1018.94 1019.20 1019.43 1019.62 1019.72 1019.70 1019.66 1019.80 1019.92 1019.94 1019.83 1019.67 1019.61 1019.59 1019.57 1019.57 1019.50 1019.37 1019.22 1019.08
1016.85 1017.20 1017.44 1017.34 1017.33 1017.47 1017.72 1018.03 1018.17 1018.44 1018.51 1018.72 1018.75 1018.80 1018.97 1019.23 1019.53 1019.65 1019.84 1019.83 1019.85 1019.99 1020.08 1020.09 1019.95 1019.82 1019.78 1019.77 1019.73 1019.68 1019.56 1019.43 1019.29
1016.50 1016.97 1017.25 1017.12 1017.25 1017.41 1017.70 1018.02 1018.29 1018.49 1018.60 1018.77 1018.90 1018.92 1018.81 1018.95 1019.34 1019.52 1019.70 1019.92 1019.96 1019.96 1020.05 1020.10 1020.15 1020.03 1019.90 1019.84 1019.80 1019.76 1019.67 1019.59 1019.49
1016.11 1016.55 1016.74 1016.84 1017.15 1017.42 1017.62 1017.90 1018.09 1018.61 1018.74 1018.82 1018.86 1018.99 1018.95 1018.81 1019.02 1019.39 1019.47 1019.65 1019.78 1019.89 1019.80 1019.81 1019.84 1019.97 1019.93 1019.87 1019.76 1019.79 1019.71 1019.63 1019.55
1015.51 1016.07 1016.36 1016.70 1017.09 1017.27 1017.45 1017.70 1018.01 1018.28 1018.53 1018.60 1018.72 1018.91 1018.91 1018.78 1018.95 1019.21 1019.20 1019.44 1019.49 1019.59 1019.64 1019.69 1019.74 1019.60 1019.71 1019.62 1019.56 1019.69 1019.66 1019.57 1019.54
1014.65 1015.49 1016.05 1016.42 1016.61 1016.72 1017.09 1017.55 1017.94 1018.27 1018.38 1018.98 1019.11 1018.88 1018.73 1018.79 1018.77 1018.90 1019.10 1019.31 1019.38 1019.53 1019.43 1019.47 1019.54 1019.55 1019.26 1019.32 1019.33 1019.30 1019.37 1019.47 1019.50
1013.93 1014.80 1015.56 1016.05 1016.48 1016.77 1016.94 1017.15 1017.83 1018.10 1018.16 1018.89 1019.64 1019.53 1019.12 1018.84 1018.64 1018.70 1018.85 1018.96 1019.05 1019.30 1019.19 1019.25 1019.25 1019.32 1019.28 1019.21 1019.14 1019.16 1019.23 1019.35 1019.34
1012.70 1013.53 1014.54 1015.36 1015.83 1016.24 1016.47 1016.64 1017.08 1017.85 1018.09 1018.02 1018.59 1019.48 1019.50 1019.26 1018.80 1018.73 1018.73 1018.85 1018.86 1018.94 1018.90 1018.85 1018.85 1018.92 1019.04 1018.95 1018.92 1018.93 1019.06 1019.04 1018.97
1012.06 1012.59 1013.36 1014.36 1015.16 1015.67 1015.87 1016.15 1016.41 1016.95 1017.79 1018.18 1017.91 1018.22 1018.59 1019.28 1019.44 1019.00 1018.94 1018.79 1018.68 1018.72 1018.90 1018.73 1018.57 1018.64 1018.72 1018.63 1018.62 1018.56 1018.54 1018.58 1018.65
1011.48 1011.93 1012.59 1013.34 1014.17 1014.85 1015.33 1015.78 1015.98 1016.10 1016.83 1017.19 1017.76 1018.23 1018.47 1018.69 1019.28 1019.44 1019.31 1019.03 1018.69 1018.66 1018.57 1018.52 1018.51 1018.36 1018.37 1018.41 1018.30 1018.13 1018.08 1018.09 1018.20
Wind_Speed
12 12 12 10 9 8 9 8 8 6 8 9 10 12 12 13 9 7 9 6 8 8 7 7 6 6 7 8 8 7 9 8 9
12 12 12 11 10 9 8 7 7 7 10 8 9 10 11 8 8 7 6 5 8 7 5 5 4 4 5 5 6 7 8 8 8
12 11 11 11 10 9 9 8 7 8 9 9 8 11 9 9 7 7 6 2 4 6 6 4 3 2 3 4 5 6 7 7 7
11 11 10 10 10 9 9 8 7 6 5 5 5 7 8 7 5 7 4 8 11 5 4 5 4 3 3 3 4 6 5 6 6
11 10 10 9 9 9 8 8 7 6 5 3 3 5 8 7 7 4 3 12 11 9 10 9 8 7 2 2 6 5 4 5 5
8 9 9 9 8 8 6 6 4 3 2 4 4 4 5 7 3 3 10 6 9 9 12 12 10 10 12 9 4 5 4 3 5
6 8 9 9 8 8 7 5 2 2 2 2 5 4 6 5 4 3 9 5 7 8 8 9 9 9 9 8 10 2 5 3 6
4 3 3 2 6 1 2 2 2 4 2 2 2 5 5 3 3 6 10 7 6 6 7 8 7 7 9 10 11 12 2 2 4
5 4 4 4 3 4 3 2 2 2 4 3 3 5 5 3 3 6 10 7 6 5 6 6 7 7 9 10 10 11 11 12 6
5 5 4 5 4 4 4 4 3 3 4 4 4 4 6 6 3 2 10 8 6 5 5 6 6 7 7 8 8 10 9 10 10
5 5 5 5 5 4 5 5 4 3 3 3 4 4 5 6 6 3 4 9 7 6 5 5 6 6 7 7 7 8 7 8 8
7 5 5 5 5 6 4 3 3 3 3 3 3 3 4 5 6 5 3 4 7 6 5 4 4 4 5 5 5 6 7 6 7
7 5 5 5 5 4 4 4 3 3 3 2 3 3 4 5 6 5 5 4 3 5 5 3 2 2 2 3 3 4 5 6 7
6 5 5 6 5 4 4 2 3 3 3 3 3 3 4 5 4 6 7 7 5 4 5 5 3 5 1 1 2 3 4 6 7
7 5 6 6 5 5 3 4 2 3 4 3 0 3 4 4 5 6 3 4 6 5 5 3 3 4 7 3 3 1 4 6 6
9 6 6 6 7 7 6 4 6 3 3 3 3 3 4 5 4 5 5 5 6 5 5 4 3 3 5 4 7 6 6 5 5
9 9 7 7 5 6 7 6 3 3 4 4 2 2 4 2 4 3 4 5 5 5 6 5 5 5 3 5 8 6 6 4 6
14 12 9 8 7 8 6 6 8 5 3 4 5 2 5 1 1 4 4 5 4 3 4 5 5 4 4 5 3 4 5 8 8
14 13 12 11 8 7 9 6 5 6 5 1 2 2 4 3 1 2 2 3 4 4 2 3 2 3 4 6 8 9 8 9 8
14 14 13 12 9 10 8 7 6 5 5 4 3 1 1 2 3 3 3 2 1 3 2 3 3 3 3 4 6 11 10 10 10
Wind_Direction
101 100 94 84 87 87 91 90 76 89 96 80 67 69 87 88 83 76 56 37 65 69 74 92 95 87 94 93 84 85 108 98 87
110 106 102 97 89 88 90 86 89 117 98 78 65 74 95 88 82 74 64 32 55 54 66 73 98 88 94 101 86 88 110 99 88
117 113 109 106 104 99 92 85 92 82 99 79 69 76 111 98 88 65 53 25 45 67 49 47 64 93 98 109 93 100 104 111 90
127 123 118 115 112 108 101 94 90 86 92 61 74 63 80 81 68 82 36 47 62 73 70 69 57 88 108 145 133 108 111 120 104
138 129 129 125 122 119 114 106 102 99 103 70 41 23 86 84 68 60 57 38 48 39 77 67 72 63 63 181 166 142 133 158 137
135 148 140 137 137 134 136 134 124 97 70 93 22 33 100 85 78 58 64 53 64 52 54 58 54 45 42 38 185 160 144 140 166
148 152 152 151 151 152 153 141 141 176 249 337 56 63 110 103 103 96 93 102 85 71 56 58 55 53 52 50 56 63 172 169 171
143 161 156 168 162 172 114 115 107 124 146 80 90 82 106 104 106 107 104 102 103 95 81 70 72 72 68 55 42 41 59 186 189
160 170 188 185 194 197 187 169 159 93 76 86 90 97 120 121 111 118 110 108 103 94 82 76 72 59 60 68 49 44 44 37 22
170 187 189 200 185 174 166 171 167 148 120 98 95 94 117 132 131 130 122 117 108 90 78 74 72 65 62 62 52 46 40 37 34
179 183 192 191 186 177 169 173 173 176 140 138 129 128 127 143 148 149 134 131 121 101 82 73 75 70 66 58 43 36 35 29 27
178 180 186 196 188 177 159 184 138 138 153 178 187 166 154 147 158 155 162 144 133 121 99 82 74 73 61 52 43 34 31 27 20
177 178 190 193 182 173 160 165 154 181 180 186 220 211 181 169 161 159 163 165 160 152 137 108 101 89 59 43 33 24 23 13 5
174 185 197 188 178 172 172 166 148 173 191 204 207 208 210 196 163 181 165 177 170 182 220 177 214 220 323 9 19 358 0 0 353
176 191 189 178 171 179 171 157 175 164 186 219 215 259 233 204 184 194 197 187 185 188 189 201 252 202 233 248 314 276 310 352 342
177 182 184 183 183 186 179 157 179 200 151 86 338 300 244 225 205 177 195 192 202 200 204 203 214 248 261 272 290 284 293 330 329
180 177 189 186 172 186 189 168 146 190 178 145 104 310 328 308 233 208 209 197 176 202 217 208 205 216 214 230 255 254 286 278 288
190 181 179 186 185 195 194 182 168 167 216 195 147 107 224 334 339 226 204 181 172 198 215 205 210 214 213 228 219 197 204 265 296
194 186 181 185 189 192 201 188 175 139 175 215 195 143 147 165 328 350 275 223 194 195 243 243 223 213 215 224 210 220 245 270 269
195 190 185 185 188 203 190 188 187 174 154 159 143 143 117 121 131 217 282 333 259 215 213 233 242 252 227 228 234 237 237 245 248